D3121 Weather Reports


Display with metric or nautical units.
time (UTC)temp
F
wind
direction
speed
MPH
gust
MPH
rain 1hr
in
rain 24hr
in
rain mn
in
humidity
%
barometer
mb
20260831012416 67 68 1.0 2.0 0.00 0.00 0.00 83 1017.5
20260831011436 68 0 2.0 3.0 0.00 0.00 0.00 83 1017.3
20260831010415 68 23 3.0 4.0 0.00 0.00 0.00 82 1017.4
20260831005415 68 338 2.0 4.0 0.00 0.00 0.00 82 1017.5
20260831004435 68 0 2.0 3.0 0.00 0.00 0.00 80 1017.4
20260831003415 69 0 2.0 4.0 0.00 0.00 0.00 79 1017.3
20260831002415 69 0 2.0 4.0 0.00 0.00 0.00 78 1017.0
20260831001436 69 0 1.0 2.0 0.00 0.00 0.00 78 1016.8
20260831000417 70 23 4.0 6.0 0.00 0.00 0.00 76 1016.6
20260830235436 70 0 1.0 1.0 0.00 0.00 0.00 77 1016.3
20260830234416 70 0.0 0.0 0.00 0.00 0.00 77 1016.1
20260830233415 70 23 3.0 4.0 0.00 0.00 0.00 77 1016.0
20260830232416 70 23 2.0 4.0 0.00 0.00 0.00 77 1016.1
20260830231416 71 23 2.0 3.0 0.00 0.00 0.00 76 1015.9
20260830230415 71 23 3.0 6.0 0.00 0.00 0.00 76 1016.1
20260830225436 71 23 3.0 4.0 0.00 0.00 0.00 76 1016.0
20260830224415 72 0.0 0.0 0.00 0.00 0.00 75 1016.1
20260830223416 72 0 2.0 3.0 0.00 0.00 0.00 73 1016.2
20260830222415 72 0.0 0.0 0.00 0.00 0.00 73 1016.1
20260830221415 73 0.0 0.0 0.00 0.00 0.00 72 1016.2
20260830220516 73 0.0 0.0 0.00 0.00 0.00 72 1016.1
20260830215416 73 0.0 0.0 0.00 0.00 0.00 72 1016.1
20260830214416 73 0.0 0.0 0.00 0.00 0.00 72 1016.2
20260830213416 73 0.0 0.0 0.00 0.00 0.00 69 1016.2
20260830212415 73 0.0 0.0 0.00 0.00 0.00 69 1016.2
20260830211415 73 0.0 0.0 0.00 0.00 0.00 69 1016.3
20260830210416 73 0.0 0.0 0.00 0.00 0.00 68 1016.4
20260830205416 73 0.0 0.0 0.00 0.00 0.00 67 1016.4
20260830204415 73 0.0 0.0 0.00 0.00 0.00 66 1016.4
20260830203456 73 23 1.0 2.0 0.00 0.00 0.00 67 1016.7
20260830202415 73 23 2.0 3.0 0.00 0.00 0.00 66 1016.7
20260830201415 73 23 1.0 2.0 0.00 0.00 0.00 66 1016.8
20260830200415 73 23 2.0 2.0 0.00 0.00 0.00 66 1016.8
20260830195435 73 0.0 2.0 0.00 0.00 0.00 66 1016.9
20260830194415 73 45 2.0 3.0 0.00 0.00 0.00 65 1017.1
20260830193415 73 113 2.0 4.0 0.00 0.00 0.00 64 1017.1
20260830192415 73 90 1.0 5.0 0.00 0.00 0.00 66 1017.3
20260830191415 72 113 1.0 2.0 0.00 0.00 0.00 67 1017.4
20260830190415 72 338 2.0 3.0 0.00 0.00 0.00 67 1017.5
20260830185435 72 68 1.0 2.0 0.00 0.00 0.00 68 1017.6
20260830184416 72 90 3.0 5.0 0.00 0.00 0.00 67 1017.6
20260830183417 72 45 1.0 2.0 0.00 0.00 0.00 66 1017.9
20260830182415 72 0.0 0.0 0.00 0.00 0.00 68 1018.1
20260830181417 72 113 1.0 2.0 0.00 0.00 0.00 68 1018.2
20260830180415 72 45 1.0 1.0 0.00 0.00 0.00 68 1018.3
20260830175417 71 23 4.0 4.0 0.00 0.00 0.00 69 1018.3
20260830174416 71 23 3.0 5.0 0.00 0.00 0.00 68 1018.5
20260830173435 71 23 2.0 4.0 0.00 0.00 0.00 67 1018.4
20260830172417 71 45 2.0 3.0 0.00 0.00 0.00 68 1018.6
20260830171417 70 113 1.0 2.0 0.00 0.00 0.00 69 1018.7
20260830170417 70 23 3.0 4.0 0.00 0.00 0.00 70 1018.8
20260830165437 70 0 1.0 2.0 0.00 0.00 0.00 72 1019.0
20260830164417 70 23 3.0 4.0 0.00 0.00 0.00 71 1019.3
20260830163417 70 338 3.0 6.0 0.00 0.00 0.00 69 1019.1
20260830162418 70 23 3.0 6.0 0.00 0.00 0.00 71 1019.4
20260830161417 69 45 2.0 4.0 0.00 0.00 0.00 72 1019.2
20260830160418 69 0 4.0 6.0 0.00 0.00 0.00 72 1019.5
20260830155416 69 0 3.0 4.0 0.00 0.00 0.00 75 1019.6
20260830154417 68 113 1.0 2.0 0.00 0.00 0.00 75 1019.1
20260830153416 68 338 2.0 4.0 0.00 0.00 0.00 72 1019.1
20260830152417 69 0 3.0 4.0 0.00 0.00 0.00 72 1019.6
20260830151416 69 338 3.0 5.0 0.00 0.00 0.00 72 1019.6
20260830150437 69 338 2.0 4.0 0.00 0.00 0.00 71 1019.6
20260830145417 69 23 3.0 4.0 0.00 0.00 0.00 71 1019.6
20260830144417 69 0 4.0 6.0 0.00 0.00 0.00 70 1019.6
20260830143417 70 45 4.0 5.0 0.00 0.00 0.00 72 1019.6
20260830142437 69 23 3.0 4.0 0.00 0.00 0.00 72 1019.6
20260830141437 69 0.0 0.0 0.00 0.00 0.00 73 1019.8
20260830140417 69 0.0 1.0 0.00 0.00 0.00 74 1019.8
20260830135417 68 0.0 0.0 0.00 0.00 0.00 74 1019.5
20260830134417 68 0.0 0.0 0.00 0.00 0.00 75 1019.6
20260830133436 67 68 2.0 3.0 0.00 0.00 0.00 75 1019.7
20260830132437 67 23 2.0 3.0 0.00 0.00 0.00 76 1019.7
20260830131437 66 23 1.0 2.0 0.00 0.00 0.00 77 1019.8
20260830130416 66 23 1.0 3.0 0.00 0.00 0.00 78 1019.8
20260830125417 65 338 2.0 3.0 0.00 0.00 0.00 78 1019.8
20260830124417 64 338 2.0 3.0 0.00 0.00 0.00 78 1019.8
20260830123417 64 338 2.0 3.0 0.00 0.00 0.00 79 1019.9
20260830122417 64 23 2.0 4.0 0.00 0.00 0.00 80 1019.9
20260830121417 63 315 1.0 2.0 0.00 0.00 0.00 81 1020.0
20260830120437 62 0 3.0 4.0 0.00 0.00 0.00 81 1020.0
20260830115417 62 0 1.0 2.0 0.00 0.00 0.00 82 1020.0
20260830114417 61 0.0 1.0 0.00 0.00 0.00 82 1020.1
20260830113419 60 338 1.0 3.0 0.00 0.00 0.00 82 1020.3
20260830112437 60 338 1.0 3.0 0.00 0.00 0.00 82 1020.3
20260830111417 60 0.0 2.0 0.00 0.00 0.00 81 1020.2
20260830110417 60 0.0 0.0 0.00 0.00 0.00 80 1020.2
20260830105417 60 0.0 0.0 0.00 0.00 0.00 79 1020.2
20260830104417 60 0.0 0.0 0.00 0.00 0.00 79 1020.2
20260830103417 60 0.0 0.0 0.00 0.00 0.00 79 1020.3
20260830102417 60 23 1.0 2.0 0.00 0.00 0.00 79 1020.2
20260830101417 60 23 1.0 2.0 0.00 0.00 0.00 79 1020.2
20260830100417 60 0 2.0 2.0 0.00 0.00 0.00 78 1020.3
20260830095419 60 0.0 1.0 0.00 0.00 0.00 77 1020.3
20260830094417 60 315 1.0 2.0 0.00 0.00 0.00 78 1020.3
20260830093417 60 338 1.0 2.0 0.00 0.00 0.00 78 1020.4
20260830092417 60 338 1.0 2.0 0.00 0.00 0.00 78 1020.4
20260830091417 60 0.0 2.0 0.00 0.00 0.00 79 1020.4
20260830090417 60 0.0 0.0 0.00 0.00 0.00 78 1020.5
20260830085417 60 338 1.0 2.0 0.00 0.00 0.00 79 1020.7
20260830084417 60 0 1.0 2.0 0.00 0.00 0.00 79 1020.6
20260830083417 60 0.0 0.0 0.00 0.00 0.00 78 1020.7
20260830082417 60 0.0 0.0 0.00 0.00 0.00 79 1020.7
20260830081417 60 0.0 0.0 0.00 0.00 0.00 79 1020.7
20260830080417 60 0.0 0.0 0.00 0.00 0.00 79 1020.8
20260830075437 60 0.0 0.0 0.00 0.00 0.00 79 1020.8
20260830074417 60 0.0 0.0 0.00 0.00 0.00 79 1020.9
20260830073417 59 0.0 0.0 0.00 0.00 0.00 80 1020.8
20260830072417 59 0.0 0.0 0.00 0.00 0.00 81 1020.7
20260830071417 59 0.0 0.0 0.00 0.00 0.00 80 1020.6
20260830070417 58 0.0 0.0 0.00 0.00 0.00 82 1020.6
20260830065417 57 0.0 0.0 0.00 0.00 0.00 83 1020.4
20260830064417 57 0.0 0.0 0.00 0.00 0.00 84 1020.5
20260830063417 57 0.0 0.0 0.00 0.00 0.00 84 1020.5
20260830062437 57 0.0 0.0 0.00 0.00 0.00 85 1020.7
20260830061417 58 0.0 0.0 0.00 0.00 0.00 84 1020.8
20260830060417 58 0.0 0.0 0.00 0.00 0.00 82 1020.8
20260830055417 58 0.0 0.0 0.00 0.00 0.00 81 1020.9
20260830054417 58 0.0 0.0 0.00 0.00 0.00 81 1020.9
20260830053417 58 0.0 0.0 0.00 0.00 0.00 81 1021.0
20260830052417 58 0.0 0.0 0.00 0.00 0.00 81 1021.0
20260830051417 58 0.0 0.0 0.00 0.00 0.00 81 1021.1
20260830050417 58 0.0 0.0 0.00 0.00 0.00 81 1021.0
20260830045417 58 0.0 0.0 0.00 0.00 0.00 81 1021.1
20260830044417 58 0.0 1.0 0.00 0.00 0.00 81 1021.0
20260830043457 58 0.0 1.0 0.00 0.00 0.00 82 1021.0
20260830042437 58 0 1.0 2.0 0.00 0.00 0.00 83 1020.9
20260830041437 58 338 1.0 1.0 0.00 0.00 0.00 83 1021.0
20260830040417 58 0.0 2.0 0.00 0.00 0.00 82 1020.9
20260830035416 58 0.0 0.0 0.00 0.00 0.00 82 1020.8
20260830034416 58 0.0 0.0 0.00 0.00 0.00 82 1020.9
20260830033416 58 0.0 0.0 0.00 0.00 0.00 83 1020.9
20260830032436 58 0.0 0.0 0.00 0.00 0.00 83 1020.8
20260830031416 58 0.0 0.0 0.00 0.00 0.00 83 1021.0
20260830030416 58 0.0 0.0 0.00 0.00 0.00 82 1021.0
20260830025416 58 0.0 0.0 0.00 0.00 0.00 82 1021.0
20260830024416 58 0.0 0.0 0.00 0.00 0.00 82 1021.0
20260830023436 58 0.0 0.0 0.00 0.00 0.00 83 1021.1
20260830022416 58 0.0 0.0 0.00 0.00 0.00 84 1021.1
20260830021416 58 0.0 0.0 0.00 0.00 0.00 84 1021.1
20260830020416 59 0.0 0.0 0.00 0.00 0.00 83 1021.1
20260830015416 59 0.0 0.0 0.00 0.00 0.00 83 1021.1
20260830014436 59 0.0 0.0 0.00 0.00 0.00 82 1021.1
20260830013416 59 0.0 0.0 0.00 0.00 0.00 80 1021.0